Location: Newark
(39.0622°N, 106.5590°E)
Time: 16:27:47
(UTC+00:00)

Courier 1B - Pass Details

Date: 01 February 2020
Orbit: 962 x 1209 km, 28.3° (Epoch: 17 February)

Event Time Altitude Azimuth Distance (km) Brightness Sun altitude
Rises 20:36:30 0° 260° (W) 3,780 - -39.7°
Reaches altitude 10° 20:39:36 10° 248° (WSW) 2,866 - -39.1°
Maximum altitude 20:45:14 26° 195° (SSW) 1,992 - -38.0°
Exits shadow 20:48:30 19° 158° (SSE) 2,366 9.6 -37.4°
Drops below altitude 10° 20:51:09 10° 141° (SE) 3,012 10.3 -36.9°
Sets 20:54:30 0° 130° (SE) 4,010 11.2 -36.3°
